Location: *
(44.1392°N, 4.8079°E)
Time: 09:41:07
(UTC+00:00)

Lacrosse 5 rocket - Pass Details

Date: 25 October 2021
Orbit: 459 x 633 km, 57.0° (Epoch: 28 November)

Event Time Altitude Azimuth Distance (km) Brightness Sun altitude
Exits shadow 03:09:48 16° 27° (NNE) 1,588 4.0 -32.4°
Drops below altitude 10° 03:10:50 10° 35° (NE) 1,929 4.6 -32.3°
Sets 03:13:24 0° 46° (NE) 2,862 5.8 -31.8°
